When you browse on this site, cookies collect data to enhance your experience and personalize the content and advertising you see.
Visit our Privacy Policy to learn more. By continuing to use the site, you agree to this use of cookies and data.
  • In United Kingdom
  • List of Countries
  • For 7 days
  • Water Temperature
  • Weather Map
  • Weather Widgets
  • user-avatar
    Login

    Hourly Weather Calafat

    Today, 24 September, Tuesday

    Time Temperature Precipitation Wind Pressure Humidity
    00:00 +19°C° 0 mm 1 mps 756 mmHg 79%
    01:00 +19°C° 0 mm 1 mps 756 mmHg 80%
    02:00 +19°C° 0 mm 1 mps 756 mmHg 84%
    03:00 +18°C° 0 mm 1 mps 755 mmHg 86%
    04:00 +18°C° 0 mm 1 mps 755 mmHg 89%
    05:00 +16°C° 0 mm 2 mps 754 mmHg 92%
    06:00 +17°C° 0 mm 2 mps 754 mmHg 88%
    07:00 +18°C° 0 mm 3 mps 755 mmHg 83%
    08:00 +18°C° 0 mm 3 mps 755 mmHg 79%
    09:00 +20°C° 0.1 mm 4 mps 755 mmHg 71%
    10:00 +21°C° 0.1 mm 4 mps 755 mmHg 62%
    11:00 +23°C° 0.1 mm 4 mps 755 mmHg 54%
    12:00 +23°C° 0.4 mm 4 mps 755 mmHg 55%
    13:00 +24°C° 0.4 mm 3 mps 755 mmHg 57%
    14:00 +22°C° 0.4 mm 3 mps 754 mmHg 59%
    15:00 +22°C° 0.3 mm 3 mps 754 mmHg 63%
    16:00 +21°C° 0.3 mm 2 mps 754 mmHg 66%
    17:00 +21°C° 0.3 mm 1 mps 754 mmHg 70%
    18:00 +20°C° 0.1 mm 2 mps 755 mmHg 72%
    19:00 +19°C° 0.1 mm 2 mps 755 mmHg 74%
    20:00 +19°C° 0.1 mm 2 mps 755 mmHg 76%
    21:00 +18°C° 0.2 mm 2 mps 755 mmHg 75%
    22:00 +18°C° 0.2 mm 2 mps 756 mmHg 75%
    23:00 +18°C° 0.2 mm 2 mps 756 mmHg 75%

    Tomorrow, 25 September, Wednesday

    Time Temperature Precipitation Wind Pressure Humidity
    00:00 +17°C° 0.1 mm 2 mps 756 mmHg 76%
    01:00 +18°C° 0.1 mm 1 mps 756 mmHg 76%
    02:00 +18°C° 0.1 mm 1 mps 756 mmHg 77%
    03:00 +18°C° 0.1 mm 1 mps 756 mmHg 79%
    04:00 +16°C° 0.1 mm 1 mps 756 mmHg 81%
    05:00 +16°C° 0.1 mm 1 mps 756 mmHg 83%
    06:00 +16°C° 0.1 mm 1 mps 756 mmHg 83%
    07:00 +16°C° 0.1 mm 1 mps 756 mmHg 84%
    08:00 +16°C° 0.1 mm 2 mps 756 mmHg 85%
    09:00 +17°C° 0.1 mm 2 mps 756 mmHg 82%
    10:00 +18°C° 0.1 mm 2 mps 756 mmHg 79%
    11:00 +19°C° 0.1 mm 2 mps 756 mmHg 75%
    12:00 +20°C° 0 mm 2 mps 756 mmHg 71%
    13:00 +21°C° 0 mm 2 mps 755 mmHg 67%
    14:00 +23°C° 0 mm 2 mps 755 mmHg 62%
    15:00 +23°C° 0 mm 2 mps 755 mmHg 62%
    16:00 +21°C° 0 mm 2 mps 755 mmHg 62%
    17:00 +21°C° 0 mm 3 mps 754 mmHg 62%
    18:00 +20°C° 0 mm 2 mps 754 mmHg 68%
    19:00 +19°C° 0 mm 2 mps 755 mmHg 74%
    20:00 +17°C° 0 mm 2 mps 755 mmHg 80%
    21:00 +17°C° 0 mm 2 mps 755 mmHg 81%
    22:00 +16°C° 0 mm 2 mps 755 mmHg 83%
    23:00 +16°C° 0 mm 2 mps 755 mmHg 85%

    Day after tomorrow, 26 September, Thursday

    Time Temperature Precipitation Wind Pressure Humidity
    00:00 +16°C° 0.1 mm 1 mps 755 mmHg 85%
    01:00 +16°C° 0.1 mm 1 mps 755 mmHg 85%
    02:00 +16°C° 0.1 mm 1 mps 754 mmHg 85%
    03:00 +16°C° 0 mm 1 mps 755 mmHg 86%
    04:00 +16°C° 0 mm 1 mps 755 mmHg 87%
    05:00 +15°C° 0 mm 1 mps 755 mmHg 88%
    06:00 +16°C° 0 mm 1 mps 755 mmHg 86%
    07:00 +18°C° 0 mm 1 mps 755 mmHg 83%
    08:00 +18°C° 0 mm 1 mps 756 mmHg 81%
    09:00 +20°C° 0 mm 1 mps 756 mmHg 75%
    10:00 +21°C° 0 mm 1 mps 756 mmHg 68%
    11:00 +23°C° 0 mm 1 mps 756 mmHg 62%
    12:00 +23°C° 0.1 mm 2 mps 756 mmHg 61%
    13:00 +24°C° 0.1 mm 2 mps 755 mmHg 59%
    14:00 +25°C° 0.1 mm 2 mps 755 mmHg 57%
    15:00 +25°C° 0.3 mm 3 mps 755 mmHg 57%
    16:00 +25°C° 0.3 mm 4 mps 755 mmHg 56%
    17:00 +25°C° 0.3 mm 5 mps 756 mmHg 55%
    18:00 +22°C° 0.2 mm 5 mps 756 mmHg 62%
    19:00 +21°C° 0.2 mm 5 mps 756 mmHg 70%
    20:00 +19°C° 0.2 mm 5 mps 757 mmHg 77%
    21:00 +19°C° 0 mm 6 mps 757 mmHg 77%
    22:00 +17°C° 0 mm 6 mps 758 mmHg 77%
    23:00 +16°C° 0 mm 6 mps 758 mmHg 77%

    27 September, Friday

    Time Temperature Precipitation Wind Pressure Humidity
    00:00 +16°C° 0 mm 6 mps 758 mmHg 76%
    01:00 +16°C° 0 mm 7 mps 759 mmHg 76%
    02:00 +15°C° 0 mm 7 mps 759 mmHg 76%
    03:00 +15°C° 0 mm 6 mps 759 mmHg 76%
    04:00 +15°C° 0 mm 6 mps 759 mmHg 77%
    05:00 +15°C° 0 mm 6 mps 760 mmHg 77%
    06:00 +15°C° 0 mm 6 mps 760 mmHg 74%
    07:00 +16°C° 0 mm 6 mps 760 mmHg 70%
    08:00 +17°C° 0 mm 7 mps 760 mmHg 67%
    09:00 +20°C° 0 mm 6 mps 760 mmHg 59%
    10:00 +22°C° 0 mm 6 mps 760 mmHg 51%
    11:00 +23°C° 0 mm 6 mps 760 mmHg 44%
    12:00 +24°C° 0 mm 6 mps 760 mmHg 41%
    13:00 +26°C° 0 mm 6 mps 760 mmHg 39%
    14:00 +27°C° 0 mm 6 mps 759 mmHg 37%
    15:00 +26°C° 0 mm 5 mps 759 mmHg 38%
    16:00 +26°C° 0 mm 5 mps 759 mmHg 39%
    17:00 +26°C° 0 mm 5 mps 759 mmHg 40%
    18:00 +23°C° 0 mm 4 mps 760 mmHg 45%
    19:00 +21°C° 0 mm 4 mps 760 mmHg 50%
    20:00 +19°C° 0 mm 3 mps 760 mmHg 56%
    21:00 +18°C° 0 mm 3 mps 761 mmHg 59%
    22:00 +18°C° 0 mm 3 mps 761 mmHg 62%
    23:00 +17°C° 0 mm 2 mps 761 mmHg 65%

    28 September, Saturday

    Time Temperature Precipitation Wind Pressure Humidity
    00:00 +17°C° 0 mm 2 mps 761 mmHg 67%
    01:00 +16°C° 0 mm 2 mps 761 mmHg 70%
    02:00 +16°C° 0 mm 2 mps 761 mmHg 72%
    03:00 +15°C° 0 mm 1 mps 761 mmHg 74%
    04:00 +15°C° 0 mm 1 mps 761 mmHg 77%
    05:00 +14°C° 0 mm 1 mps 761 mmHg 79%
    06:00 +15°C° 0 mm 1 mps 761 mmHg 75%
    07:00 +16°C° 0 mm 1 mps 761 mmHg 71%
    08:00 +18°C° 0 mm 1 mps 761 mmHg 67%
    09:00 +20°C° 0 mm 1 mps 761 mmHg 60%
    10:00 +22°C° 0 mm 1 mps 761 mmHg 52%
    11:00 +24°C° 0 mm 1 mps 761 mmHg 45%
    12:00 +26°C° 0 mm 1 mps 760 mmHg 41%
    13:00 +27°C° 0 mm 1 mps 760 mmHg 36%
    14:00 +28°C° 0 mm 1 mps 759 mmHg 32%
    15:00 +28°C° 0 mm 1 mps 759 mmHg 31%
    16:00 +28°C° 0 mm 1 mps 759 mmHg 31%
    17:00 +28°C° 0 mm 1 mps 758 mmHg 30%
    18:00 +26°C° 0 mm 1 mps 758 mmHg 35%
    19:00 +24°C° 0 mm 1 mps 759 mmHg 40%
    20:00 +22°C° 0 mm 1 mps 759 mmHg 44%
    21:00 +21°C° 0 mm 1 mps 759 mmHg 46%
    22:00 +20°C° 0 mm 1 mps 759 mmHg 48%
    23:00 +18°C° 0 mm 0 mps 759 mmHg 50%

    29 September, Sunday

    Time Temperature Precipitation Wind Pressure Humidity
    00:00 +17°C° 0 mm 0 mps 759 mmHg 52%
    01:00 +19°C° 0 mm 1 mps 759 mmHg 53%
    02:00 +18°C° 0 mm 1 mps 759 mmHg 55%
    03:00 +18°C° 0 mm 1 mps 759 mmHg 57%
    04:00 +16°C° 0 mm 1 mps 759 mmHg 58%
    05:00 +16°C° 0 mm 1 mps 759 mmHg 60%
    06:00 +18°C° 0 mm 1 mps 759 mmHg 57%
    07:00 +19°C° 0 mm 1 mps 759 mmHg 54%
    08:00 +18°C° 0 mm 0 mps 759 mmHg 50%
    09:00 +22°C° 0 mm 1 mps 759 mmHg 45%
    10:00 +25°C° 0 mm 1 mps 759 mmHg 39%
    11:00 +27°C° 0 mm 1 mps 759 mmHg 33%
    12:00 +28°C° 0 mm 1 mps 759 mmHg 30%
    13:00 +29°C° 0 mm 1 mps 758 mmHg 28%
    14:00 +31°C° 0 mm 1 mps 758 mmHg 26%
    15:00 +30°C° 0 mm 1 mps 757 mmHg 26%
    16:00 +30°C° 0 mm 1 mps 757 mmHg 27%
    17:00 +30°C° 0 mm 1 mps 757 mmHg 27%
    18:00 +28°C° 0 mm 1 mps 757 mmHg 32%
    19:00 +26°C° 0 mm 1 mps 757 mmHg 36%
    20:00 +24°C° 0 mm 1 mps 757 mmHg 40%
    21:00 +23°C° 0 mm 1 mps 757 mmHg 42%
    22:00 +22°C° 0 mm 1 mps 757 mmHg 45%
    23:00 +22°C° 0 mm 1 mps 757 mmHg 47%
    Show more